Weather in Shumyachi

Russia / Smolensk Oblast     53°51′26″N   32°25′25″E
temp.,
°C
wind,
m/s
gust,
m/s
humid.,
%
clouds,
%
prec.,
mm/h
press.,
hPa
HPBL,
m
29 july, thu
thu2900:00+18w228859 0.0 101115
03:00+17wsw2290100 0.1 101038
06:00+18wnw22855 0.0 100937
09:00+24w236014 0.0 1009423
12:00+28wsw344410 0.0 10082117
15:00+27wsw234781 0.0 10071002
18:00+25s125880 0.1 100673
21:00+20w61188100 1.1 1007382
30 july, fri
fri3000:00+17w1299100 1.4 100740
03:00+17wsw259933 1.9 1007162
06:00+16wnw279821 0.0 1007211
09:00+20nw36839 0.0 1008506
12:00+25wnw35530 0.1 10081642
15:00+25w4647100 0.1 10081651
18:00+23w3754100 0.0 1007444
21:00+19wsw37750 0.0 1007117
31 july, sat
sat3100:00+17wsw2367100 0.0 100846
03:00+18ssw3661100 0.0 1008152
06:00+17sw3107398 0.0 1008270
09:00+22wsw48550 0.0 1008872
12:00+26w69410 0.0 10082039
15:00+27w6937100 0.0 10082393
18:00+26w48425 0.0 10082085
21:00+20wnw116487 0.0 100911
1 august, sun
sun100:00+17ese227124 0.0 101014
03:00+17sse367299 0.0 100998
06:00+17sse3109099 0.8 1008210
09:00+23ssw51478100 1.6 1007747
12:00+27sw71255100 0.0 10071601
15:00+27wsw685699 0.8 10071693
18:00+26wnw465784 0.0 1008935
21:00+20se117651 0.0 100811
2 august, mon
mon200:00+18sse22837 0.0 100935
03:00+17se22903 0.0 100840
06:00+17sse2588100 0.0 1008107
09:00+22sse4977100 0.3 1006429
12:00+21ssw379040 1.9 1005304
15:00+27sw585567 2.1 10031436
18:00+21nw4108733 0.9 1004408
21:00+17nw3995100 2.6 1005425